When you browse on this site, cookies collect data to enhance your experience and personalize the content and advertising you see.
Visit our Privacy Policy to learn more. By continuing to use the site, you agree to this use of cookies and data.
  • In Austria
  • List of Countries
  • For 7 days
  • Water Temperature
  • Weather Map
  • News
  • Weather Widgets
  • user-avatar
    Login

    Hourly Weather Santiago Tulantepec

    Today, 22 January, Wednesday

    Time Temperature Precipitation Wind Pressure Humidity
    00:00 +9°C° 0 mm 1 mps 585 mmHg 88%
    01:00 +8°C° 0 mm 1 mps 584 mmHg 88%
    02:00 +8°C° 0 mm 1 mps 583 mmHg 88%
    03:00 +7°C° 0 mm 2 mps 583 mmHg 86%
    04:00 +7°C° 0 mm 2 mps 583 mmHg 85%
    05:00 +7°C° 0 mm 2 mps 583 mmHg 83%
    06:00 +9°C° 0 mm 2 mps 584 mmHg 75%
    07:00 +12°C° 0 mm 2 mps 585 mmHg 67%
    08:00 +13°C° 0 mm 2 mps 586 mmHg 60%
    09:00 +15°C° 0 mm 2 mps 587 mmHg 52%
    10:00 +17°C° 0 mm 3 mps 587 mmHg 45%
    11:00 +19°C° 0 mm 3 mps 588 mmHg 38%
    12:00 +20°C° 0 mm 3 mps 587 mmHg 36%
    13:00 +21°C° 0 mm 3 mps 586 mmHg 35%
    14:00 +21°C° 0 mm 3 mps 586 mmHg 34%
    15:00 +20°C° 0 mm 2 mps 585 mmHg 42%
    16:00 +18°C° 0 mm 2 mps 584 mmHg 50%
    17:00 +18°C° 0 mm 1 mps 583 mmHg 58%
    18:00 +16°C° 0 mm 1 mps 584 mmHg 61%
    19:00 +15°C° 0 mm 1 mps 584 mmHg 63%
    20:00 +14°C° 0 mm 1 mps 584 mmHg 65%
    21:00 +14°C° 0 mm 1 mps 584 mmHg 66%
    22:00 +14°C° 0 mm 1 mps 584 mmHg 67%
    23:00 +14°C° 0 mm 1 mps 584 mmHg 68%

    Tomorrow, 23 January, Thursday

    Time Temperature Precipitation Wind Pressure Humidity
    00:00 +13°C° 0 mm 1 mps 584 mmHg 74%
    01:00 +11°C° 0 mm 0 mps 583 mmHg 80%
    02:00 +10°C° 0 mm 0 mps 582 mmHg 86%
    03:00 +10°C° 0 mm 0 mps 582 mmHg 86%
    04:00 +12°C° 0 mm 1 mps 582 mmHg 86%
    05:00 +12°C° 0 mm 1 mps 582 mmHg 86%
    06:00 +13°C° 0 mm 1 mps 583 mmHg 81%
    07:00 +13°C° 0 mm 1 mps 584 mmHg 76%
    08:00 +14°C° 0 mm 1 mps 585 mmHg 71%
    09:00 +16°C° 0.2 mm 1 mps 585 mmHg 67%
    10:00 +17°C° 0.2 mm 2 mps 585 mmHg 62%
    11:00 +18°C° 0.2 mm 2 mps 585 mmHg 58%
    12:00 +17°C° 0.6 mm 2 mps 585 mmHg 61%
    13:00 +17°C° 0.6 mm 2 mps 584 mmHg 64%
    14:00 +16°C° 0.6 mm 2 mps 583 mmHg 67%
    15:00 +15°C° 0.9 mm 2 mps 583 mmHg 74%
    16:00 +14°C° 0.9 mm 2 mps 582 mmHg 81%
    17:00 +12°C° 0.9 mm 2 mps 582 mmHg 88%
    18:00 +12°C° 1.6 mm 2 mps 582 mmHg 89%
    19:00 +11°C° 1.6 mm 1 mps 582 mmHg 89%
    20:00 +11°C° 1.6 mm 1 mps 583 mmHg 90%
    21:00 +11°C° 0.7 mm 1 mps 583 mmHg 89%
    22:00 +11°C° 0.7 mm 1 mps 583 mmHg 88%
    23:00 +11°C° 0.7 mm 1 mps 583 mmHg 87%

    Day after tomorrow, 24 January, Friday

    Time Temperature Precipitation Wind Pressure Humidity
    00:00 +11°C° 0.2 mm 1 mps 583 mmHg 87%
    01:00 +11°C° 0.2 mm 1 mps 582 mmHg 87%
    02:00 +10°C° 0.2 mm 0 mps 582 mmHg 87%
    03:00 +10°C° 0.1 mm 0 mps 582 mmHg 88%
    04:00 +10°C° 0.1 mm 0 mps 582 mmHg 89%
    05:00 +9°C° 0.1 mm 0 mps 582 mmHg 90%
    06:00 +11°C° 0 mm 1 mps 583 mmHg 87%
    07:00 +12°C° 0 mm 1 mps 584 mmHg 84%
    08:00 +12°C° 0 mm 1 mps 585 mmHg 81%
    09:00 +13°C° 0.1 mm 1 mps 585 mmHg 78%
    10:00 +14°C° 0.1 mm 1 mps 585 mmHg 75%
    11:00 +15°C° 0.1 mm 1 mps 585 mmHg 72%
    12:00 +15°C° 0.2 mm 1 mps 585 mmHg 73%
    13:00 +15°C° 0.2 mm 2 mps 584 mmHg 75%
    14:00 +15°C° 0.2 mm 2 mps 584 mmHg 76%
    15:00 +14°C° 0.1 mm 2 mps 583 mmHg 80%
    16:00 +14°C° 0.1 mm 2 mps 583 mmHg 85%
    17:00 +13°C° 0.1 mm 2 mps 583 mmHg 90%
    18:00 +13°C° 0.1 mm 2 mps 583 mmHg 91%
    19:00 +12°C° 0.1 mm 2 mps 584 mmHg 93%
    20:00 +12°C° 0.1 mm 1 mps 584 mmHg 94%
    21:00 +12°C° 0 mm 1 mps 584 mmHg 94%
    22:00 +12°C° 0 mm 1 mps 584 mmHg 94%
    23:00 +11°C° 0 mm 1 mps 584 mmHg 94%

    25 January, Saturday

    Time Temperature Precipitation Wind Pressure Humidity
    00:00 +11°C° 0 mm 1 mps 583 mmHg 94%
    01:00 +11°C° 0 mm 1 mps 583 mmHg 93%
    02:00 +10°C° 0 mm 1 mps 582 mmHg 93%
    03:00 +10°C° 0 mm 1 mps 582 mmHg 93%
    04:00 +10°C° 0 mm 1 mps 582 mmHg 93%
    05:00 +10°C° 0 mm 1 mps 582 mmHg 93%
    06:00 +11°C° 0 mm 1 mps 583 mmHg 88%
    07:00 +12°C° 0 mm 1 mps 585 mmHg 82%
    08:00 +14°C° 0 mm 1 mps 586 mmHg 77%
    09:00 +16°C° 0 mm 2 mps 586 mmHg 67%
    10:00 +18°C° 0 mm 2 mps 587 mmHg 58%
    11:00 +19°C° 0 mm 2 mps 588 mmHg 48%
    12:00 +20°C° 0.1 mm 2 mps 587 mmHg 48%
    13:00 +20°C° 0.1 mm 3 mps 586 mmHg 47%
    14:00 +20°C° 0.1 mm 3 mps 586 mmHg 47%
    15:00 +19°C° 0.2 mm 2 mps 585 mmHg 55%
    16:00 +18°C° 0.2 mm 2 mps 585 mmHg 63%
    17:00 +16°C° 0.2 mm 2 mps 584 mmHg 70%
    18:00 +15°C° 0.1 mm 2 mps 584 mmHg 74%
    19:00 +14°C° 0.1 mm 1 mps 584 mmHg 77%
    20:00 +13°C° 0.1 mm 1 mps 584 mmHg 80%
    21:00 +13°C° 0 mm 1 mps 584 mmHg 80%
    22:00 +13°C° 0 mm 1 mps 584 mmHg 80%
    23:00 +12°C° 0 mm 1 mps 584 mmHg 80%

    26 January, Sunday

    Time Temperature Precipitation Wind Pressure Humidity
    00:00 +12°C° 0 mm 1 mps 583 mmHg 81%
    01:00 +12°C° 0 mm 1 mps 583 mmHg 82%
    02:00 +10°C° 0 mm 2 mps 582 mmHg 84%
    03:00 +10°C° 0 mm 2 mps 582 mmHg 85%
    04:00 +10°C° 0 mm 2 mps 582 mmHg 85%
    05:00 +9°C° 0 mm 2 mps 582 mmHg 86%
    06:00 +12°C° 0 mm 1 mps 583 mmHg 81%
    07:00 +13°C° 0 mm 1 mps 584 mmHg 76%
    08:00 +14°C° 0 mm 1 mps 585 mmHg 71%
    09:00 +16°C° 0 mm 2 mps 586 mmHg 61%
    10:00 +18°C° 0 mm 2 mps 587 mmHg 51%
    11:00 +20°C° 0 mm 3 mps 587 mmHg 41%
    12:00 +19°C° 0.3 mm 3 mps 586 mmHg 46%
    13:00 +19°C° 0.3 mm 3 mps 585 mmHg 50%
    14:00 +18°C° 0.3 mm 3 mps 585 mmHg 55%
    15:00 +17°C° 0.7 mm 2 mps 584 mmHg 61%
    16:00 +16°C° 0.7 mm 2 mps 584 mmHg 67%
    17:00 +15°C° 0.7 mm 1 mps 584 mmHg 74%
    18:00 +14°C° 0.2 mm 1 mps 584 mmHg 76%
    19:00 +13°C° 0.2 mm 1 mps 584 mmHg 79%
    20:00 +13°C° 0.2 mm 1 mps 585 mmHg 81%
    21:00 +12°C° 0.1 mm 1 mps 584 mmHg 84%
    22:00 +12°C° 0.1 mm 1 mps 584 mmHg 87%
    23:00 +11°C° 0.1 mm 1 mps 584 mmHg 90%

    27 January, Monday

    Time Temperature Precipitation Wind Pressure Humidity
    00:00 +11°C° 0.1 mm 1 mps 584 mmHg 91%
    01:00 +10°C° 0.1 mm 0 mps 583 mmHg 91%
    02:00 +9°C° 0.1 mm 0 mps 583 mmHg 92%
    03:00 +9°C° 0 mm 0 mps 583 mmHg 92%
    04:00 +9°C° 0 mm 0 mps 583 mmHg 92%
    05:00 +9°C° 0 mm 0 mps 583 mmHg 92%
    06:00 +9°C° 0 mm 0 mps 583 mmHg 87%
    07:00 +10°C° 0 mm 0 mps 584 mmHg 83%
    08:00 +12°C° 0 mm 1 mps 585 mmHg 78%
    09:00 +14°C° 0 mm 1 mps 585 mmHg 67%
    10:00 +16°C° 0 mm 1 mps 586 mmHg 55%
    11:00 +18°C° 0 mm 2 mps 587 mmHg 44%
    12:00 +18°C° 0 mm 2 mps 586 mmHg 43%
    13:00 +19°C° 0 mm 2 mps 586 mmHg 43%
    14:00 +19°C° 0 mm 3 mps 585 mmHg 42%
    15:00 +18°C° 0 mm 2 mps 584 mmHg 51%
    16:00 +16°C° 0 mm 2 mps 584 mmHg 59%
    17:00 +15°C° 0 mm 1 mps 583 mmHg 68%
    18:00 +14°C° 0 mm 1 mps 583 mmHg 72%
    19:00 +13°C° 0 mm 1 mps 583 mmHg 76%
    20:00 +11°C° 0 mm 0 mps 583 mmHg 81%
    21:00 +12°C° 0 mm 1 mps 583 mmHg 75%
    22:00 +11°C° 0 mm 1 mps 583 mmHg 70%
    23:00 +10°C° 0 mm 2 mps 582 mmHg 65%
    Show more